Time,TemperatureF,DewpointF,PressureIn,WindDirection,WindDirectionDegrees,WindSpeedMPH,WindSpeedGustMPH,Humidity,HourlyPrecipIn,Conditions,Clouds,dailyrainin,SoftwareType,DateUTC
2013-07-14 00:03:00,54.3,53.5,29.73,SW,225,11.2,16.3,96,0.00,,,0.00,Rainwise IP-100,2013-07-14 07:03:00,
2013-07-14 00:08:00,54.4,53.5,29.73,SSW,202,12.4,17.0,96,0.00,,,0.00,Rainwise IP-100,2013-07-14 07:08:00,
2013-07-14 00:13:00,54.4,53.5,29.74,WSW,247,6.5,15.2,96,0.00,,,0.00,Rainwise IP-100,2013-07-14 07:13:00,
2013-07-14 00:18:00,54.4,53.5,29.73,WSW,247,6.8,14.2,96,0.00,,,0.00,Rainwise IP-100,2013-07-14 07:18:00,
2013-07-14 00:23:00,54.4,53.5,29.74,SSW,202,7.5,13.5,96,0.00,,,0.00,Rainwise IP-100,2013-07-14 07:23:00,
2013-07-14 00:28:00,54.5,53.5,29.74,WSW,247,4.2,15.4,96,0.00,,,0.00,Rainwise IP-100,2013-07-14 07:28:00,
2013-07-14 00:33:00,54.5,53.5,29.73,WSW,247,9.8,14.0,96,0.00,,,0.00,Rainwise IP-100,2013-07-14 07:33:00,
2013-07-14 00:38:00,54.4,53.5,29.73,SW,225,10.7,17.7,96,0.00,,,0.00,Rainwise IP-100,2013-07-14 07:38:00,
2013-07-14 00:43:00,54.3,53.5,29.73,WSW,247,11.0,13.8,96,0.00,,,0.00,Rainwise IP-100,2013-07-14 07:43:00,
2013-07-14 00:48:00,54.4,53.5,29.74,WSW,247,10.5,14.0,96,0.00,,,0.00,Rainwise IP-100,2013-07-14 07:48:00,
2013-07-14 00:53:00,54.3,53.5,29.73,South,180,2.8,14.9,96,0.00,,,0.00,Rainwise IP-100,2013-07-14 07:53:00,
2013-07-14 00:58:00,54.2,53.0,29.72,SW,225,7.5,12.4,96,0.00,,,0.00,Rainwise IP-100,2013-07-14 07:58:00,
2013-07-14 01:03:00,54.2,53.0,29.73,SW,225,9.6,15.6,96,0.00,,,0.00,Rainwise IP-100,2013-07-14 08:03:00,
2013-07-14 01:08:00,54.3,53.5,29.73,SW,225,10.3,14.9,96,0.00,,,0.00,Rainwise IP-100,2013-07-14 08:08:00,
2013-07-14 01:13:00,54.4,53.5,29.72,SSW,202,9.1,12.4,96,0.00,,,0.00,Rainwise IP-100,2013-07-14 08:13:00,
2013-07-14 01:18:00,54.4,53.5,29.72,SW,225,7.7,15.9,96,0.00,,,0.00,Rainwise IP-100,2013-07-14 08:18:00,
2013-07-14 01:23:00,54.3,53.5,29.73,West,270,3.3,15.9,96,0.00,,,0.00,Rainwise IP-100,2013-07-14 08:23:00,
2013-07-14 01:28:00,54.3,53.5,29.73,WSW,247,8.6,15.2,96,0.00,,,0.00,Rainwise IP-100,2013-07-14 08:28:00,
2013-07-14 01:33:00,54.4,53.5,29.73,WSW,247,5.4,14.9,96,0.00,,,0.00,Rainwise IP-100,2013-07-14 08:33:00,
2013-07-14 01:38:00,54.3,53.5,29.72,SW,225,11.7,13.5,96,0.00,,,0.00,Rainwise IP-100,2013-07-14 08:38:00,
2013-07-14 01:43:00,54.2,53.0,29.73,WSW,247,5.4,16.8,96,0.00,,,0.00,Rainwise IP-100,2013-07-14 08:43:00,
2013-07-14 01:48:00,54.2,53.0,29.72,SW,225,9.3,15.4,96,0.00,,,0.00,Rainwise IP-100,2013-07-14 08:48:00,
2013-07-14 01:53:00,54.3,53.5,29.72,SW,225,11.4,13.8,96,0.00,,,0.00,Rainwise IP-100,2013-07-14 08:53:00,
2013-07-14 01:58:00,54.3,53.5,29.72,SSW,202,8.6,17.3,96,0.00,,,0.00,Rainwise IP-100,2013-07-14 08:58:00,
2013-07-14 02:03:00,54.3,53.5,29.73,WSW,247,7.5,14.0,96,0.00,,,0.00,Rainwise IP-100,2013-07-14 09:03:00,
2013-07-14 02:08:00,54.4,53.5,29.73,SW,225,12.1,16.1,96,0.00,,,0.00,Rainwise IP-100,2013-07-14 09:08:00,
2013-07-14 02:13:00,54.4,53.5,29.72,SW,225,12.1,12.6,96,0.00,,,0.00,Rainwise IP-100,2013-07-14 09:13:00,
2013-07-14 02:18:00,54.4,53.5,29.72,WSW,247,6.1,12.1,96,0.00,,,0.00,Rainwise IP-100,2013-07-14 09:18:00,
2013-07-14 02:23:00,54.3,53.5,29.72,SSW,202,10.5,13.3,96,0.00,,,0.00,Rainwise IP-100,2013-07-14 09:23:00,
2013-07-14 02:28:00,54.2,53.0,29.72,SSW,202,8.2,15.6,96,0.00,,,0.00,Rainwise IP-100,2013-07-14 09:28:00,
2013-07-14 02:33:00,54.2,53.0,29.72,SSW,202,11.2,13.8,96,0.00,,,0.00,Rainwise IP-100,2013-07-14 09:33:00,
2013-07-14 02:38:00,54.1,53.0,29.72,SW,225,10.3,14.2,96,0.00,,,0.00,Rainwise IP-100,2013-07-14 09:38:00,
2013-07-14 02:43:00,54.1,53.0,29.72,SSW,202,8.2,13.8,96,0.00,,,0.00,Rainwise IP-100,2013-07-14 09:43:00,
2013-07-14 02:48:00,54.1,53.0,29.72,WSW,247,4.4,13.5,96,0.00,,,0.00,Rainwise IP-100,2013-07-14 09:48:00,
2013-07-14 02:53:00,54.0,53.5,29.72,SSW,202,4.9,15.2,97,0.00,,,0.00,Rainwise IP-100,2013-07-14 09:53:00,
2013-07-14 02:58:00,53.9,53.5,29.72,SW,225,9.6,13.5,97,0.00,,,0.00,Rainwise IP-100,2013-07-14 09:58:00,
2013-07-14 03:03:00,53.7,53.0,29.72,WSW,247,8.2,13.8,97,0.00,,,0.00,Rainwise IP-100,2013-07-14 10:03:00,
2013-07-14 03:09:00,53.7,53.0,29.72,WSW,247,6.5,12.6,97,0.00,,,0.00,Rainwise IP-100,2013-07-14 10:09:00,
2013-07-14 03:14:00,53.6,53.0,29.72,WSW,247,8.9,12.8,97,0.00,,,0.00,Rainwise IP-100,2013-07-14 10:14:00,
2013-07-14 03:19:00,53.6,53.0,29.72,SSW,202,7.7,14.2,97,0.00,,,0.00,Rainwise IP-100,2013-07-14 10:19:00,
2013-07-14 03:24:00,53.6,53.0,29.72,SW,225,5.4,12.4,97,0.00,,,0.00,Rainwise IP-100,2013-07-14 10:24:00,
2013-07-14 03:29:00,53.6,53.0,29.72,WSW,247,5.1,16.1,97,0.00,,,0.00,Rainwise IP-100,2013-07-14 10:29:00,
2013-07-14 03:34:00,53.6,53.0,29.72,SW,225,5.8,11.2,97,0.00,,,0.00,Rainwise IP-100,2013-07-14 10:34:00,
2013-07-14 03:39:00,53.6,53.0,29.72,WSW,247,3.5,13.1,97,0.00,,,0.00,Rainwise IP-100,2013-07-14 10:39:00,
2013-07-14 03:44:00,53.7,53.0,29.72,SSW,202,6.5,11.4,97,0.00,,,0.00,Rainwise IP-100,2013-07-14 10:44:00,
2013-07-14 03:49:00,53.8,53.5,29.72,SW,225,4.9,11.9,97,0.00,,,0.00,Rainwise IP-100,2013-07-14 10:49:00,
2013-07-14 03:54:00,53.7,53.0,29.72,SW,225,6.1,12.4,97,0.00,,,0.00,Rainwise IP-100,2013-07-14 10:54:00,
2013-07-14 03:59:00,53.7,53.0,29.72,SSW,202,11.0,13.5,97,0.00,,,0.00,Rainwise IP-100,2013-07-14 10:59:00,
2013-07-14 04:04:00,53.6,53.0,29.72,WSW,247,5.8,14.2,97,0.00,,,0.00,Rainwise IP-100,2013-07-14 11:04:00,
2013-07-14 04:09:00,53.6,53.0,29.72,SSW,202,9.1,13.1,97,0.00,,,0.00,Rainwise IP-100,2013-07-14 11:09:00,
2013-07-14 04:14:00,53.6,53.0,29.72,SSW,202,6.1,14.2,97,0.00,,,0.00,Rainwise IP-100,2013-07-14 11:14:00,
2013-07-14 04:19:00,53.6,53.0,29.71,WSW,247,3.7,12.8,97,0.00,,,0.00,Rainwise IP-100,2013-07-14 11:19:00,
2013-07-14 04:24:00,53.6,53.0,29.72,SW,225,2.6,11.4,97,0.00,,,0.00,Rainwise IP-100,2013-07-14 11:24:00,
2013-07-14 04:29:00,53.6,53.0,29.72,SW,225,6.1,11.4,97,0.00,,,0.00,Rainwise IP-100,2013-07-14 11:29:00,
2013-07-14 04:34:00,53.6,53.0,29.72,SW,225,9.3,12.4,97,0.00,,,0.00,Rainwise IP-100,2013-07-14 11:34:00,
2013-07-14 04:39:00,53.5,53.0,29.72,SW,225,8.6,14.9,97,0.00,,,0.00,Rainwise IP-100,2013-07-14 11:39:00,
2013-07-14 04:44:00,53.3,53.0,29.72,SSW,202,5.6,12.1,97,0.00,,,0.00,Rainwise IP-100,2013-07-14 11:44:00,
2013-07-14 04:49:00,53.3,53.0,29.72,SW,225,6.5,11.7,97,0.00,,,0.00,Rainwise IP-100,2013-07-14 11:49:00,
2013-07-14 04:54:00,53.4,53.0,29.72,SW,225,8.2,13.3,97,0.00,,,0.00,Rainwise IP-100,2013-07-14 11:54:00,
2013-07-14 04:59:00,53.4,53.0,29.72,SSW,202,7.5,12.8,98,0.00,,,0.00,Rainwise IP-100,2013-07-14 11:59:00,
2013-07-14 05:04:00,53.3,53.0,29.73,SSW,202,8.4,10.0,98,0.00,,,0.00,Rainwise IP-100,2013-07-14 12:04:00,
2013-07-14 05:09:00,53.3,53.0,29.72,SSW,202,6.3,9.6,98,0.00,,,0.00,Rainwise IP-100,2013-07-14 12:09:00,
2013-07-14 05:14:00,53.2,52.0,29.73,WSW,247,5.1,8.6,98,0.00,,,0.00,Rainwise IP-100,2013-07-14 12:14:00,
2013-07-14 05:19:00,53.1,52.0,29.73,SW,225,5.6,8.2,98,0.00,,,0.00,Rainwise IP-100,2013-07-14 12:19:00,
2013-07-14 05:24:00,53.0,52.0,29.73,SSW,202,5.8,12.4,97,0.00,,,0.00,Rainwise IP-100,2013-07-14 12:24:00,
2013-07-14 05:29:00,52.9,52.0,29.73,SW,225,4.9,10.7,97,0.00,,,0.00,Rainwise IP-100,2013-07-14 12:29:00,
2013-07-14 05:34:00,53.0,52.0,29.73,SW,225,2.8,8.2,98,0.00,,,0.00,Rainwise IP-100,2013-07-14 12:34:00,
2013-07-14 05:39:00,53.0,52.0,29.73,SW,225,5.1,8.6,98,0.00,,,0.00,Rainwise IP-100,2013-07-14 12:39:00,
2013-07-14 05:44:00,53.0,52.0,29.73,SW,225,6.3,11.2,98,0.00,,,0.00,Rainwise IP-100,2013-07-14 12:44:00,
2013-07-14 05:49:00,53.0,52.0,29.74,SW,225,6.1,10.5,98,0.00,,,0.00,Rainwise IP-100,2013-07-14 12:49:00,
2013-07-14 05:54:00,53.0,52.0,29.73,SW,225,4.2,9.3,98,0.00,,,0.00,Rainwise IP-100,2013-07-14 12:54:00,
2013-07-14 05:59:00,53.0,52.0,29.74,SSW,202,4.9,9.8,98,0.00,,,0.00,Rainwise IP-100,2013-07-14 12:59:00,
2013-07-14 06:04:00,53.0,52.0,29.74,SW,225,7.7,8.9,98,0.00,,,0.00,Rainwise IP-100,2013-07-14 13:04:00,
2013-07-14 06:09:00,53.0,52.0,29.74,SSW,202,7.0,11.4,98,0.00,,,0.00,Rainwise IP-100,2013-07-14 13:09:00,
2013-07-14 06:14:00,52.9,52.0,29.75,SW,225,8.6,9.8,98,0.00,,,0.00,Rainwise IP-100,2013-07-14 13:14:00,
2013-07-14 06:19:00,52.8,52.0,29.75,SSW,202,4.7,11.9,98,0.00,,,0.00,Rainwise IP-100,2013-07-14 13:19:00,
2013-07-14 06:24:00,52.8,52.0,29.75,WSW,247,7.2,9.1,98,0.00,,,0.00,Rainwise IP-100,2013-07-14 13:24:00,
2013-07-14 06:29:00,52.8,52.0,29.75,WSW,247,6.3,10.7,98,0.00,,,0.00,Rainwise IP-100,2013-07-14 13:29:00,
2013-07-14 06:34:00,52.8,52.0,29.75,SSW,202,4.2,9.3,98,0.00,,,0.00,Rainwise IP-100,2013-07-14 13:34:00,
2013-07-14 06:39:00,52.8,52.0,29.75,SW,225,8.6,10.3,98,0.00,,,0.00,Rainwise IP-100,2013-07-14 13:39:00,
2013-07-14 06:44:00,53.0,52.0,29.75,WSW,247,4.9,12.1,98,0.00,,,0.00,Rainwise IP-100,2013-07-14 13:44:00,
2013-07-14 06:49:00,52.9,52.0,29.75,SSW,202,5.6,13.1,98,0.00,,,0.00,Rainwise IP-100,2013-07-14 13:49:00,
2013-07-14 06:54:00,52.8,52.0,29.74,SW,225,5.1,11.7,98,0.00,,,0.00,Rainwise IP-100,2013-07-14 13:54:00,
2013-07-14 06:59:00,52.9,52.0,29.74,SSW,202,5.6,12.6,98,0.00,,,0.00,Rainwise IP-100,2013-07-14 13:59:00,
2013-07-14 07:04:00,53.1,52.0,29.75,WSW,247,5.1,12.1,98,0.00,,,0.00,Rainwise IP-100,2013-07-14 14:04:00,
2013-07-14 07:09:00,53.0,52.0,29.75,SW,225,7.0,11.9,98,0.00,,,0.00,Rainwise IP-100,2013-07-14 14:09:00,
2013-07-14 07:14:00,53.0,52.0,29.75,SW,225,8.6,9.8,98,0.00,,,0.00,Rainwise IP-100,2013-07-14 14:14:00,
2013-07-14 07:19:00,53.1,52.0,29.75,SSW,202,7.7,10.0,98,0.00,,,0.00,Rainwise IP-100,2013-07-14 14:19:00,
2013-07-14 07:24:00,53.0,52.0,29.75,SW,225,7.5,14.5,98,0.00,,,0.00,Rainwise IP-100,2013-07-14 14:24:00,
2013-07-14 07:29:00,53.0,52.0,29.75,SW,225,7.0,9.3,98,0.00,,,0.00,Rainwise IP-100,2013-07-14 14:29:00,
2013-07-14 07:34:00,53.0,52.0,29.75,SSW,202,9.6,10.0,98,0.00,,,0.00,Rainwise IP-100,2013-07-14 14:34:00,
2013-07-14 07:39:00,52.9,52.0,29.76,SSW,202,3.5,10.3,98,0.00,,,0.00,Rainwise IP-100,2013-07-14 14:39:00,
2013-07-14 07:44:00,52.9,52.0,29.76,WSW,247,5.1,12.6,98,0.00,,,0.00,Rainwise IP-100,2013-07-14 14:44:00,
2013-07-14 07:50:00,52.8,52.0,29.76,South,180,5.6,10.7,98,0.00,,,0.00,Rainwise IP-100,2013-07-14 14:50:00,
2013-07-14 07:55:00,52.9,52.0,29.76,WSW,247,4.9,9.6,98,0.00,,,0.00,Rainwise IP-100,2013-07-14 14:55:00,
2013-07-14 08:00:00,53.0,52.0,29.76,WSW,247,4.4,13.3,98,0.00,,,0.00,Rainwise IP-100,2013-07-14 15:00:00,
2013-07-14 08:05:00,53.0,52.0,29.76,SSW,202,4.9,11.9,98,0.00,,,0.00,Rainwise IP-100,2013-07-14 15:05:00,
2013-07-14 08:10:00,53.0,52.0,29.76,SW,225,7.0,10.0,98,0.00,,,0.00,Rainwise IP-100,2013-07-14 15:10:00,
2013-07-14 08:15:00,53.1,53.0,29.76,WSW,247,4.7,10.3,99,0.00,,,0.00,Rainwise IP-100,2013-07-14 15:15:00,
2013-07-14 08:20:00,53.2,53.0,29.76,SW,225,6.5,9.8,99,0.00,,,0.00,Rainwise IP-100,2013-07-14 15:20:00,
2013-07-14 08:25:00,53.2,53.0,29.76,SW,225,4.0,10.7,99,0.00,,,0.00,Rainwise IP-100,2013-07-14 15:25:00,
2013-07-14 08:29:00,53.2,53.0,29.77,SW,225,3.3,9.8,99,0.00,,,0.00,Rainwise IP-100,2013-07-14 15:29:00,
2013-07-14 08:34:00,53.3,53.5,29.76,SSW,202,5.8,8.4,99,0.00,,,0.00,Rainwise IP-100,2013-07-14 15:34:00,
2013-07-14 08:39:00,53.4,53.5,29.76,WSW,247,5.4,12.1,99,0.00,,,0.00,Rainwise IP-100,2013-07-14 15:39:00,
2013-07-14 08:44:00,53.4,53.0,29.77,SW,225,6.3,10.3,98,0.00,,,0.00,Rainwise IP-100,2013-07-14 15:44:00,
2013-07-14 08:49:00,53.3,53.0,29.77,WSW,247,4.0,11.4,98,0.00,,,0.00,Rainwise IP-100,2013-07-14 15:49:00,
2013-07-14 08:55:00,53.3,53.0,29.77,WNW,292,6.3,10.0,98,0.00,,,0.00,Rainwise IP-100,2013-07-14 15:55:00,
2013-07-14 09:00:00,53.4,53.0,29.77,West,270,10.5,11.7,98,0.00,,,0.00,Rainwise IP-100,2013-07-14 16:00:00,
2013-07-14 09:05:00,53.5,53.0,29.77,WSW,247,5.1,10.5,98,0.00,,,0.00,Rainwise IP-100,2013-07-14 16:05:00,
2013-07-14 09:10:00,53.6,53.0,29.77,West,270,8.2,9.1,98,0.00,,,0.00,Rainwise IP-100,2013-07-14 16:10:00,
2013-07-14 09:15:00,53.7,53.0,29.77,SW,225,4.0,11.7,98,0.00,,,0.00,Rainwise IP-100,2013-07-14 16:15:00,
2013-07-14 09:20:00,53.8,53.5,29.77,WSW,247,4.0,13.1,98,0.00,,,0.00,Rainwise IP-100,2013-07-14 16:20:00,
2013-07-14 09:25:00,53.9,53.5,29.77,SW,225,2.6,12.4,98,0.00,,,0.00,Rainwise IP-100,2013-07-14 16:25:00,
2013-07-14 09:30:00,53.9,53.5,29.77,WSW,247,6.1,11.2,97,0.00,,,0.00,Rainwise IP-100,2013-07-14 16:30:00,
2013-07-14 09:35:00,53.9,53.5,29.77,SW,225,9.1,17.3,97,0.00,,,0.00,Rainwise IP-100,2013-07-14 16:35:00,
2013-07-14 09:40:00,53.9,53.5,29.77,SW,225,5.1,10.7,97,0.00,,,0.00,Rainwise IP-100,2013-07-14 16:40:00,
2013-07-14 09:45:00,53.9,53.5,29.77,SSW,202,9.3,13.5,97,0.00,,,0.00,Rainwise IP-100,2013-07-14 16:45:00,
2013-07-14 09:50:00,54.0,53.5,29.77,SW,225,11.0,14.9,97,0.00,,,0.00,Rainwise IP-100,2013-07-14 16:50:00,
2013-07-14 09:55:00,54.0,53.5,29.76,SSW,202,8.9,14.0,97,0.00,,,0.00,Rainwise IP-100,2013-07-14 16:55:00,
2013-07-14 10:00:00,54.0,53.5,29.77,SSW,202,4.2,12.4,97,0.00,,,0.00,Rainwise IP-100,2013-07-14 17:00:00,
2013-07-14 10:05:00,53.9,53.5,29.77,SSW,202,6.1,15.2,97,0.00,,,0.00,Rainwise IP-100,2013-07-14 17:05:00,
2013-07-14 10:10:00,53.9,53.5,29.77,SSW,202,9.3,13.5,97,0.00,,,0.00,Rainwise IP-100,2013-07-14 17:10:00,
2013-07-14 10:15:00,54.1,53.5,29.77,SW,225,13.8,15.4,97,0.00,,,0.00,Rainwise IP-100,2013-07-14 17:15:00,
2013-07-14 10:20:00,54.2,53.5,29.77,SSW,202,7.5,14.9,97,0.00,,,0.00,Rainwise IP-100,2013-07-14 17:20:00,
2013-07-14 10:25:00,54.2,53.5,29.77,SW,225,12.1,14.5,97,0.00,,,0.00,Rainwise IP-100,2013-07-14 17:25:00,
2013-07-14 10:30:00,54.3,54.0,29.77,WSW,247,8.4,14.2,97,0.00,,,0.00,Rainwise IP-100,2013-07-14 17:30:00,
2013-07-14 10:35:00,54.4,54.0,29.77,WSW,247,7.5,15.2,97,0.00,,,0.00,Rainwise IP-100,2013-07-14 17:35:00,
2013-07-14 10:40:00,54.5,54.0,29.77,SW,225,7.0,13.3,97,0.00,,,0.00,Rainwise IP-100,2013-07-14 17:40:00,
2013-07-14 10:45:00,54.5,53.5,29.77,West,270,4.7,13.8,96,0.00,,,0.00,Rainwise IP-100,2013-07-14 17:45:00,
2013-07-14 10:50:00,54.7,53.5,29.77,SW,225,5.8,10.3,96,0.00,,,0.00,Rainwise IP-100,2013-07-14 17:50:00,
2013-07-14 10:55:00,54.8,54.0,29.77,SW,225,6.3,14.0,96,0.00,,,0.00,Rainwise IP-100,2013-07-14 17:55:00,
2013-07-14 11:00:00,54.7,53.5,29.77,WSW,247,6.1,14.2,95,0.00,,,0.00,Rainwise IP-100,2013-07-14 18:00:00,
2013-07-14 11:05:00,54.8,54.0,29.77,SW,225,9.3,14.5,95,0.00,,,0.00,Rainwise IP-100,2013-07-14 18:05:00,
2013-07-14 11:10:00,55.0,54.0,29.77,SW,225,9.1,16.6,95,0.00,,,0.00,Rainwise IP-100,2013-07-14 18:10:00,
2013-07-14 11:15:00,55.2,54.0,29.77,SW,225,5.1,12.1,95,0.00,,,0.00,Rainwise IP-100,2013-07-14 18:15:00,
2013-07-14 11:20:00,55.3,54.0,29.78,SSW,202,6.1,16.3,95,0.00,,,0.00,Rainwise IP-100,2013-07-14 18:20:00,
2013-07-14 11:25:00,55.3,53.5,29.77,SW,225,4.4,17.7,94,0.00,,,0.00,Rainwise IP-100,2013-07-14 18:25:00,
2013-07-14 11:30:00,55.3,53.5,29.77,SW,225,11.9,16.6,94,0.00,,,0.00,Rainwise IP-100,2013-07-14 18:30:00,
2013-07-14 11:35:00,55.4,54.0,29.78,SW,225,7.0,16.3,95,0.00,,,0.00,Rainwise IP-100,2013-07-14 18:35:00,
2013-07-14 11:40:00,55.4,53.5,29.78,SSW,202,8.4,13.5,94,0.00,,,0.00,Rainwise IP-100,2013-07-14 18:40:00,
2013-07-14 11:45:00,55.4,53.5,29.78,SW,225,9.1,14.9,94,0.00,,,0.00,Rainwise IP-100,2013-07-14 18:45:00,
2013-07-14 11:50:00,55.5,54.0,29.77,WSW,247,5.4,14.9,94,0.00,,,0.00,Rainwise IP-100,2013-07-14 18:50:00,
2013-07-14 11:55:00,55.8,54.0,29.77,SSW,202,8.2,13.1,93,0.00,,,0.00,Rainwise IP-100,2013-07-14 18:55:00,
2013-07-14 12:00:00,55.9,54.0,29.77,SSW,202,8.9,17.0,93,0.00,,,0.00,Rainwise IP-100,2013-07-14 19:00:00,
2013-07-14 12:04:00,55.8,54.0,29.77,WSW,247,6.5,14.9,93,0.00,,,0.00,Rainwise IP-100,2013-07-14 19:04:00,
2013-07-14 12:09:00,55.8,54.0,29.78,SW,225,10.3,13.1,93,0.00,,,0.00,Rainwise IP-100,2013-07-14 19:09:00,
2013-07-14 12:14:00,55.8,54.0,29.78,SSW,202,7.7,14.9,93,0.00,,,0.00,Rainwise IP-100,2013-07-14 19:14:00,
2013-07-14 12:19:00,55.9,54.0,29.78,WSW,247,5.1,15.9,93,0.00,,,0.00,Rainwise IP-100,2013-07-14 19:19:00,
2013-07-14 12:24:00,56.0,54.0,29.77,SW,225,11.7,18.7,93,0.00,,,0.00,Rainwise IP-100,2013-07-14 19:24:00,
2013-07-14 12:29:00,56.1,54.0,29.77,WSW,247,10.7,13.3,93,0.00,,,0.00,Rainwise IP-100,2013-07-14 19:29:00,
2013-07-14 12:34:00,56.1,54.0,29.77,SW,225,11.2,15.4,93,0.00,,,0.00,Rainwise IP-100,2013-07-14 19:34:00,
2013-07-14 12:39:00,56.1,54.0,29.77,SW,225,9.6,16.6,93,0.00,,,0.00,Rainwise IP-100,2013-07-14 19:39:00,
2013-07-14 12:44:00,56.3,54.0,29.77,West,270,9.6,13.1,92,0.00,,,0.00,Rainwise IP-100,2013-07-14 19:44:00,
2013-07-14 12:50:00,56.3,54.0,29.77,SW,225,13.8,15.2,92,0.00,,,0.00,Rainwise IP-100,2013-07-14 19:50:00,
2013-07-14 12:55:00,56.5,54.0,29.77,SW,225,8.6,13.8,92,0.00,,,0.00,Rainwise IP-100,2013-07-14 19:55:00,
2013-07-14 13:00:00,56.7,54.0,29.78,WSW,247,10.5,14.9,92,0.00,,,0.00,Rainwise IP-100,2013-07-14 20:00:00,
2013-07-14 13:05:00,56.5,54.0,29.77,WSW,247,9.3,15.9,92,0.00,,,0.00,Rainwise IP-100,2013-07-14 20:05:00,
2013-07-14 13:10:00,56.6,54.0,29.77,SSW,202,6.8,13.3,92,0.00,,,0.00,Rainwise IP-100,2013-07-14 20:10:00,
2013-07-14 13:15:00,56.9,54.5,29.77,SW,225,7.7,15.6,91,0.00,,,0.00,Rainwise IP-100,2013-07-14 20:15:00,
2013-07-14 13:20:00,56.8,54.5,29.77,SSW,202,9.3,14.7,91,0.00,,,0.00,Rainwise IP-100,2013-07-14 20:20:00,
2013-07-14 13:25:00,56.7,54.0,29.77,SW,225,13.1,18.4,92,0.00,,,0.00,Rainwise IP-100,2013-07-14 20:25:00,
2013-07-14 13:31:00,56.9,54.5,29.77,SSW,202,17.3,17.3,92,0.00,,,0.00,Rainwise IP-100,2013-07-14 20:31:00,
2013-07-14 13:37:00,56.9,54.5,29.77,SSW,202,14.9,15.6,91,0.00,,,0.00,Rainwise IP-100,2013-07-14 20:37:00,
2013-07-14 13:42:00,56.9,54.5,29.77,WSW,247,6.1,17.7,91,0.00,,,0.00,Rainwise IP-100,2013-07-14 20:42:00,
2013-07-14 13:47:00,56.8,54.5,29.76,SW,225,9.8,20.5,91,0.00,,,0.00,Rainwise IP-100,2013-07-14 20:47:00,
2013-07-14 13:52:00,56.7,54.0,29.76,SW,225,10.0,17.5,91,0.00,,,0.00,Rainwise IP-100,2013-07-14 20:52:00,
2013-07-14 13:57:00,57.1,54.5,29.77,SW,225,14.0,17.7,91,0.00,,,0.00,Rainwise IP-100,2013-07-14 20:57:00,
2013-07-14 14:02:00,57.3,54.5,29.76,SW,225,9.8,15.4,90,0.00,,,0.00,Rainwise IP-100,2013-07-14 21:02:00,
2013-07-14 14:07:00,57.3,54.5,29.76,SW,225,6.5,15.6,90,0.00,,,0.00,Rainwise IP-100,2013-07-14 21:07:00,
2013-07-14 14:12:00,57.5,54.5,29.76,SW,225,11.0,17.3,90,0.00,,,0.00,Rainwise IP-100,2013-07-14 21:12:00,
2013-07-14 14:17:00,57.5,54.5,29.75,SW,225,10.5,15.9,90,0.00,,,0.00,Rainwise IP-100,2013-07-14 21:17:00,
2013-07-14 14:22:00,57.2,54.0,29.76,West,270,12.1,16.6,90,0.00,,,0.00,Rainwise IP-100,2013-07-14 21:22:00,
2013-07-14 14:27:00,56.8,54.0,29.75,SW,225,15.6,18.2,90,0.00,,,0.00,Rainwise IP-100,2013-07-14 21:27:00,
2013-07-14 14:32:00,56.6,53.5,29.76,SW,225,9.3,19.1,90,0.00,,,0.00,Rainwise IP-100,2013-07-14 21:32:00,
2013-07-14 14:37:00,56.8,54.0,29.75,SSW,202,8.4,15.4,90,0.00,,,0.00,Rainwise IP-100,2013-07-14 21:37:00,
2013-07-14 14:42:00,57.1,54.0,29.75,West,270,8.6,16.3,90,0.00,,,0.00,Rainwise IP-100,2013-07-14 21:42:00,
2013-07-14 14:47:00,57.4,54.5,29.75,SW,225,5.1,14.9,90,0.00,,,0.00,Rainwise IP-100,2013-07-14 21:47:00,
2013-07-14 14:52:00,57.6,54.5,29.75,SSW,202,6.8,15.6,89,0.00,,,0.00,Rainwise IP-100,2013-07-14 21:52:00,
2013-07-14 14:57:00,57.5,54.0,29.75,West,270,8.9,16.1,88,0.00,,,0.00,Rainwise IP-100,2013-07-14 21:57:00,
2013-07-14 15:02:00,57.2,53.5,29.75,WSW,247,8.2,17.7,88,0.00,,,0.00,Rainwise IP-100,2013-07-14 22:02:00,
2013-07-14 15:07:00,57.1,54.0,29.75,SSW,202,7.9,20.1,89,0.00,,,0.00,Rainwise IP-100,2013-07-14 22:07:00,
2013-07-14 15:12:00,57.4,54.5,29.74,WSW,247,9.6,14.2,89,0.00,,,0.00,Rainwise IP-100,2013-07-14 22:12:00,
2013-07-14 15:17:00,57.4,54.5,29.74,SW,225,3.5,14.0,89,0.00,,,0.00,Rainwise IP-100,2013-07-14 22:17:00,
2013-07-14 15:22:00,57.4,54.5,29.74,WSW,247,9.6,15.9,89,0.00,,,0.00,Rainwise IP-100,2013-07-14 22:22:00,
2013-07-14 15:27:00,57.2,54.0,29.75,SW,225,8.4,15.4,89,0.00,,,0.00,Rainwise IP-100,2013-07-14 22:27:00,
2013-07-14 15:32:00,56.7,53.5,29.74,SW,225,12.1,16.1,89,0.00,,,0.00,Rainwise IP-100,2013-07-14 22:32:00,
2013-07-14 15:37:00,56.5,53.5,29.73,SW,225,9.8,15.6,90,0.00,,,0.00,Rainwise IP-100,2013-07-14 22:37:00,
2013-07-14 15:42:00,56.3,53.5,29.74,SSW,202,7.2,18.2,90,0.00,,,0.00,Rainwise IP-100,2013-07-14 22:42:00,
2013-07-14 15:47:00,56.2,53.5,29.73,SSW,202,5.4,15.9,90,0.00,,,0.00,Rainwise IP-100,2013-07-14 22:47:00,
2013-07-14 15:52:00,56.4,53.5,29.73,SSW,202,7.9,17.5,90,0.00,,,0.00,Rainwise IP-100,2013-07-14 22:52:00,
2013-07-14 15:57:00,56.6,53.5,29.73,SW,225,11.0,16.8,90,0.00,,,0.00,Rainwise IP-100,2013-07-14 22:57:00,
2013-07-14 16:02:00,56.7,53.5,29.73,SW,225,8.4,14.7,90,0.00,,,0.00,Rainwise IP-100,2013-07-14 23:02:00,
2013-07-14 16:07:00,56.6,53.5,29.73,WSW,247,8.4,14.9,90,0.00,,,0.00,Rainwise IP-100,2013-07-14 23:07:00,
2013-07-14 16:12:00,56.5,54.0,29.73,SSW,202,16.8,17.5,91,0.00,,,0.00,Rainwise IP-100,2013-07-14 23:12:00,
2013-07-14 16:17:00,56.5,54.0,29.71,WSW,247,10.7,19.8,91,0.00,,,0.00,Rainwise IP-100,2013-07-14 23:17:00,
2013-07-14 16:22:00,56.4,54.0,29.73,WSW,247,11.0,17.5,91,0.00,,,0.00,Rainwise IP-100,2013-07-14 23:22:00,
2013-07-14 16:28:00,56.4,54.0,29.72,SSW,202,7.5,16.8,91,0.00,,,0.00,Rainwise IP-100,2013-07-14 23:28:00,
2013-07-14 16:33:00,56.6,54.0,29.72,SW,225,14.0,14.9,91,0.00,,,0.00,Rainwise IP-100,2013-07-14 23:33:00,
2013-07-14 16:38:00,56.5,54.0,29.72,SSW,202,9.3,16.1,91,0.00,,,0.00,Rainwise IP-100,2013-07-14 23:38:00,
2013-07-14 16:43:00,56.2,53.5,29.72,SSW,202,12.8,17.3,91,0.00,,,0.00,Rainwise IP-100,2013-07-14 23:43:00,
2013-07-14 16:48:00,56.3,54.0,29.72,SW,225,4.2,17.5,91,0.00,,,0.00,Rainwise IP-100,2013-07-14 23:48:00,
2013-07-14 16:53:00,56.3,54.0,29.72,SW,225,7.9,14.2,91,0.00,,,0.00,Rainwise IP-100,2013-07-14 23:53:00,
2013-07-14 16:58:00,56.3,54.0,29.72,SSW,202,8.4,17.5,92,0.00,,,0.00,Rainwise IP-100,2013-07-14 23:58:00,
2013-07-14 17:03:00,56.2,53.5,29.72,SW,225,7.2,14.9,92,0.00,,,0.00,Rainwise IP-100,2013-07-15 00:03:00,
2013-07-14 17:08:00,56.4,54.0,29.72,WSW,247,12.8,17.3,92,0.00,,,0.00,Rainwise IP-100,2013-07-15 00:08:00,
2013-07-14 17:13:00,56.2,53.5,29.71,SW,225,9.1,18.0,92,0.00,,,0.00,Rainwise IP-100,2013-07-15 00:13:00,
2013-07-14 17:18:00,55.9,53.5,29.71,West,270,6.3,15.2,92,0.00,,,0.00,Rainwise IP-100,2013-07-15 00:18:00,
2013-07-14 17:23:00,55.7,54.0,29.71,SW,225,8.6,16.1,93,0.00,,,0.00,Rainwise IP-100,2013-07-15 00:23:00,
2013-07-14 17:28:00,55.5,54.0,29.70,WSW,247,10.3,16.3,93,0.00,,,0.00,Rainwise IP-100,2013-07-15 00:28:00,
2013-07-14 17:33:00,55.5,54.0,29.70,West,270,11.9,16.6,93,0.00,,,0.00,Rainwise IP-100,2013-07-15 00:33:00,
2013-07-14 17:38:00,55.5,54.0,29.70,WSW,247,10.0,14.2,94,0.00,,,0.00,Rainwise IP-100,2013-07-15 00:38:00,
2013-07-14 17:43:00,55.5,54.0,29.70,WSW,247,7.9,15.2,94,0.00,,,0.00,Rainwise IP-100,2013-07-15 00:43:00,
2013-07-14 17:48:00,55.4,53.5,29.70,WSW,247,4.9,17.7,94,0.00,,,0.00,Rainwise IP-100,2013-07-15 00:48:00,
2013-07-14 17:53:00,55.4,53.5,29.69,SW,225,9.3,14.0,94,0.00,,,0.00,Rainwise IP-100,2013-07-15 00:53:00,
2013-07-14 17:58:00,55.4,53.5,29.69,WSW,247,12.1,16.3,94,0.00,,,0.00,Rainwise IP-100,2013-07-15 00:58:00,
2013-07-14 18:03:00,55.3,53.5,29.69,WSW,247,10.0,13.3,94,0.00,,,0.00,Rainwise IP-100,2013-07-15 01:03:00,
2013-07-14 18:08:00,55.3,53.5,29.70,SW,225,8.9,16.3,94,0.00,,,0.00,Rainwise IP-100,2013-07-15 01:08:00,
2013-07-14 18:13:00,55.4,53.5,29.69,SSW,202,4.4,14.9,94,0.00,,,0.00,Rainwise IP-100,2013-07-15 01:13:00,
2013-07-14 18:18:00,55.4,53.5,29.69,SW,225,7.2,14.7,94,0.00,,,0.00,Rainwise IP-100,2013-07-15 01:18:00,
2013-07-14 18:23:00,55.3,53.5,29.69,SSW,202,10.0,16.3,94,0.00,,,0.00,Rainwise IP-100,2013-07-15 01:23:00,
2013-07-14 18:28:00,55.2,53.5,29.70,SSW,202,10.3,16.3,94,0.00,,,0.00,Rainwise IP-100,2013-07-15 01:28:00,
2013-07-14 18:33:00,55.0,53.5,29.69,SSW,202,7.7,15.6,94,0.00,,,0.00,Rainwise IP-100,2013-07-15 01:33:00,
2013-07-14 18:38:00,54.9,54.0,29.69,SW,225,7.5,16.3,95,0.00,,,0.00,Rainwise IP-100,2013-07-15 01:38:00,
2013-07-14 18:43:00,55.0,54.0,29.69,SSW,202,11.7,13.1,95,0.00,,,0.00,Rainwise IP-100,2013-07-15 01:43:00,
2013-07-14 18:48:00,54.9,54.0,29.69,SW,225,6.5,15.2,95,0.00,,,0.00,Rainwise IP-100,2013-07-15 01:48:00,
2013-07-14 18:53:00,54.8,54.0,29.69,SSW,202,7.7,15.2,95,0.00,,,0.00,Rainwise IP-100,2013-07-15 01:53:00,
2013-07-14 18:58:00,54.8,54.0,29.69,SW,225,7.0,16.1,96,0.00,,,0.00,Rainwise IP-100,2013-07-15 01:58:00,
2013-07-14 19:03:00,54.8,54.0,29.69,SW,225,6.3,14.0,96,0.00,,,0.00,Rainwise IP-100,2013-07-15 02:03:00,
2013-07-14 19:08:00,54.8,54.0,29.69,SW,225,7.9,13.5,96,0.00,,,0.00,Rainwise IP-100,2013-07-15 02:08:00,
2013-07-14 19:13:00,54.8,54.0,29.69,SW,225,10.3,15.9,96,0.00,,,0.00,Rainwise IP-100,2013-07-15 02:13:00,
2013-07-14 19:18:00,54.6,53.5,29.69,SSW,202,9.1,15.2,96,0.00,,,0.00,Rainwise IP-100,2013-07-15 02:18:00,
2013-07-14 19:23:00,54.6,53.5,29.69,SW,225,10.3,16.1,96,0.00,,,0.00,Rainwise IP-100,2013-07-15 02:23:00,
2013-07-14 19:28:00,54.5,53.5,29.69,SSW,202,6.5,14.9,96,0.00,,,0.00,Rainwise IP-100,2013-07-15 02:28:00,
2013-07-14 19:33:00,54.4,53.5,29.69,WSW,247,7.9,14.9,96,0.00,,,0.00,Rainwise IP-100,2013-07-15 02:33:00,
2013-07-14 19:39:00,54.3,54.0,29.69,West,270,9.3,15.6,97,0.00,,,0.00,Rainwise IP-100,2013-07-15 02:39:00,
2013-07-14 19:44:00,54.3,54.0,29.69,SW,225,7.2,15.2,97,0.00,,,0.00,Rainwise IP-100,2013-07-15 02:44:00,
2013-07-14 19:49:00,54.3,54.0,29.69,SW,225,6.1,15.9,97,0.00,,,0.00,Rainwise IP-100,2013-07-15 02:49:00,
2013-07-14 19:54:00,54.3,54.0,29.69,SW,225,4.7,11.4,97,0.00,,,0.00,Rainwise IP-100,2013-07-15 02:54:00,
2013-07-14 19:59:00,54.4,54.0,29.69,SW,225,7.5,12.4,97,0.00,,,0.00,Rainwise IP-100,2013-07-15 02:59:00,
2013-07-14 20:04:00,54.2,53.5,29.70,SSW,202,8.9,11.4,97,0.00,,,0.00,Rainwise IP-100,2013-07-15 03:04:00,
2013-07-14 20:09:00,53.8,53.5,29.70,SSW,202,7.7,17.0,97,0.00,,,0.00,Rainwise IP-100,2013-07-15 03:09:00,
2013-07-14 20:14:00,53.6,53.0,29.69,SW,225,7.7,14.0,97,0.00,,,0.00,Rainwise IP-100,2013-07-15 03:14:00,
2013-07-14 20:19:00,53.6,53.0,29.70,SSW,202,9.6,12.6,98,0.00,,,0.00,Rainwise IP-100,2013-07-15 03:19:00,
2013-07-14 20:24:00,53.6,53.0,29.70,WSW,247,5.1,14.5,98,0.00,,,0.00,Rainwise IP-100,2013-07-15 03:24:00,
2013-07-14 20:29:00,53.6,53.0,29.69,SSW,202,4.4,14.9,98,0.00,,,0.00,Rainwise IP-100,2013-07-15 03:29:00,
2013-07-14 20:34:00,53.6,53.0,29.70,SW,225,5.4,13.8,98,0.00,,,0.00,Rainwise IP-100,2013-07-15 03:34:00,
2013-07-14 20:39:00,53.5,53.0,29.69,SW,225,9.3,14.0,98,0.00,,,0.00,Rainwise IP-100,2013-07-15 03:39:00,
2013-07-14 20:44:00,53.4,53.0,29.69,SW,225,7.7,15.2,98,0.00,,,0.00,Rainwise IP-100,2013-07-15 03:44:00,
2013-07-14 20:49:00,53.2,52.0,29.69,SW,225,4.9,12.8,98,0.00,,,0.00,Rainwise IP-100,2013-07-15 03:49:00,
2013-07-14 20:54:00,53.1,52.0,29.69,WSW,247,7.9,12.6,98,0.00,,,0.00,Rainwise IP-100,2013-07-15 03:54:00,
2013-07-14 20:59:00,53.1,52.0,29.70,SW,225,6.8,12.6,98,0.00,,,0.00,Rainwise IP-100,2013-07-15 03:59:00,
2013-07-14 21:01:00,53.1,52.0,29.70,SW,225,8.6,12.1,98,0.00,,,0.00,Rainwise IP-100,2013-07-15 04:01:00,
2013-07-14 21:07:00,53.2,53.0,29.70,SW,225,5.1,15.2,99,0.00,,,0.00,Rainwise IP-100,2013-07-15 04:07:00,
2013-07-14 21:12:00,53.1,53.0,29.70,SW,225,7.7,15.2,99,0.00,,,0.00,Rainwise IP-100,2013-07-15 04:12:00,
2013-07-14 21:17:00,53.0,53.0,29.70,SW,225,10.5,14.9,99,0.00,,,0.00,Rainwise IP-100,2013-07-15 04:17:00,
2013-07-14 21:22:00,53.0,53.0,29.70,SSW,202,13.1,15.2,99,0.00,,,0.00,Rainwise IP-100,2013-07-15 04:22:00,
2013-07-14 21:27:00,52.8,53.0,29.70,SW,225,11.2,16.1,99,0.00,,,0.00,Rainwise IP-100,2013-07-15 04:27:00,
2013-07-14 21:32:00,52.8,53.0,29.70,SW,225,5.4,14.0,99,0.00,,,0.00,Rainwise IP-100,2013-07-15 04:32:00,
2013-07-14 21:37:00,52.8,53.0,29.70,SW,225,8.9,13.3,99,0.00,,,0.00,Rainwise IP-100,2013-07-15 04:37:00,
2013-07-14 21:42:00,52.8,53.0,29.70,SW,225,8.2,11.9,99,0.00,,,0.00,Rainwise IP-100,2013-07-15 04:42:00,
2013-07-14 21:47:00,52.8,53.0,29.70,WSW,247,7.7,16.6,99,0.00,,,0.00,Rainwise IP-100,2013-07-15 04:47:00,
2013-07-14 21:52:00,52.7,53.0,29.70,SW,225,12.6,14.5,99,0.00,,,0.00,Rainwise IP-100,2013-07-15 04:52:00,
2013-07-14 21:57:00,52.7,53.0,29.70,SSW,202,8.6,12.8,99,0.00,,,0.00,Rainwise IP-100,2013-07-15 04:57:00,
2013-07-14 22:02:00,52.7,53.0,29.71,SW,225,7.5,13.8,99,0.00,,,0.00,Rainwise IP-100,2013-07-15 05:02:00,
2013-07-14 22:07:00,52.8,53.0,29.70,SSW,202,11.0,12.6,100,0.00,,,0.00,Rainwise IP-100,2013-07-15 05:07:00,
2013-07-14 22:12:00,52.9,53.0,29.71,WSW,247,9.6,11.2,100,0.00,,,0.00,Rainwise IP-100,2013-07-15 05:12:00,
2013-07-14 22:17:00,52.8,53.0,29.71,SW,225,10.0,16.1,100,0.00,,,0.00,Rainwise IP-100,2013-07-15 05:17:00,
2013-07-14 22:22:00,52.7,53.0,29.71,SSW,202,14.5,14.5,100,0.00,,,0.00,Rainwise IP-100,2013-07-15 05:22:00,
2013-07-14 22:27:00,52.7,53.0,29.70,WSW,247,6.1,15.6,100,0.00,,,0.00,Rainwise IP-100,2013-07-15 05:27:00,
2013-07-14 22:32:00,52.7,53.0,29.71,SSW,202,7.7,12.6,100,0.00,,,0.00,Rainwise IP-100,2013-07-15 05:32:00,
2013-07-14 22:37:00,52.6,53.0,29.70,SW,225,10.0,17.7,100,0.00,,,0.00,Rainwise IP-100,2013-07-15 05:37:00,
2013-07-14 22:42:00,52.5,53.0,29.70,SW,225,10.0,15.9,100,0.00,,,0.00,Rainwise IP-100,2013-07-15 05:42:00,
2013-07-14 22:47:00,52.6,53.0,29.70,WSW,247,3.5,14.5,100,0.00,,,0.00,Rainwise IP-100,2013-07-15 05:47:00,
2013-07-14 22:52:00,52.5,53.0,29.71,SW,225,8.6,15.4,100,0.00,,,0.00,Rainwise IP-100,2013-07-15 05:52:00,
2013-07-14 22:57:00,52.5,53.0,29.70,SSW,202,5.4,15.4,100,0.00,,,0.00,Rainwise IP-100,2013-07-15 05:57:00,
2013-07-14 23:02:00,52.4,52.0,29.70,WSW,247,6.8,11.2,100,0.00,,,0.00,Rainwise IP-100,2013-07-15 06:02:00,
2013-07-14 23:07:00,52.4,52.0,29.70,WSW,247,7.5,14.2,100,0.00,,,0.00,Rainwise IP-100,2013-07-15 06:07:00,
2013-07-14 23:12:00,52.4,52.0,29.69,SSW,202,10.7,15.9,100,0.00,,,0.00,Rainwise IP-100,2013-07-15 06:12:00,
2013-07-14 23:17:00,52.3,52.0,29.70,WSW,247,6.5,14.5,100,0.00,,,0.00,Rainwise IP-100,2013-07-15 06:17:00,
2013-07-14 23:22:00,52.3,52.0,29.70,WSW,247,8.4,14.9,100,0.00,,,0.00,Rainwise IP-100,2013-07-15 06:22:00,
2013-07-14 23:27:00,52.2,52.0,29.70,SW,225,6.3,14.5,100,0.00,,,0.00,Rainwise IP-100,2013-07-15 06:27:00,
2013-07-14 23:32:00,52.1,52.0,29.70,SSW,202,3.3,16.8,100,0.00,,,0.00,Rainwise IP-100,2013-07-15 06:32:00,
2013-07-14 23:37:00,52.1,52.0,29.70,WSW,247,8.4,15.6,100,0.00,,,0.00,Rainwise IP-100,2013-07-15 06:37:00,
2013-07-14 23:42:00,52.0,52.0,29.70,SW,225,7.5,13.5,100,0.00,,,0.00,Rainwise IP-100,2013-07-15 06:42:00,
2013-07-14 23:47:00,52.0,52.0,29.70,SSW,202,8.4,10.5,100,0.00,,,0.00,Rainwise IP-100,2013-07-15 06:47:00,
2013-07-14 23:52:00,52.0,52.0,29.69,WSW,247,5.6,15.9,100,0.00,,,0.00,Rainwise IP-100,2013-07-15 06:52:00,
2013-07-14 23:57:00,51.8,52.0,29.70,WSW,247,12.6,17.0,100,0.00,,,0.00,Rainwise IP-100,2013-07-15 06:57:00,